Location: Unspecified
(48.5670°N, 0.0000°E)
Time: 11:37:53
(UTC+00:00)

Vanguard 2 Rocket - Pass Details

Date: 28 August 2019
Orbit: 554 x 3327 km, 32.9° (Epoch: 20 September)

Event Time Altitude Azimuth Distance (km) Brightness Sun altitude
Rises 02:25:22 0° 235° (SW) 4,497 - -23.5°
Reaches altitude 10° 02:28:10 10° 227° (SW) 3,841 - -23.2°
Exits shadow 02:33:14 30° 201° (SSW) 3,093 9.0 -22.7°
Maximum altitude 02:37:48 38° 163° (SSE) 3,118 9.3 -22.2°
Drops below altitude 10° 02:52:45 10° 105° (ESE) 5,926 11.4 -20.5°
Sets 02:58:22 0° 99° (E) 7,176 12.0 -19.8°
